IZ2NAI-3 Weather Reports


Display with metric or nautical units.
time (UTC)temp
F
wind
direction
speed
MPH
gust
MPH
rain 1hr
in
rain 24hr
in
rain mn
in
humidity
%
barometer
mb
20260507145505 76 205 3.0 8.0 0.00 0.02 0.01 47 1011.9
20260507145006 75 215 2.0 8.0 0.00 0.02 0.01 45 1011.9
20260507144505 75 249 1.0 5.0 0.00 0.02 0.01 47 1012.0
20260507144005 75 270 2.0 4.0 0.00 0.02 0.01 47 1012.0
20260507143505 75 290 3.0 7.0 0.00 0.02 0.01 49 1011.9
20260507143005 74 316 3.0 7.0 0.00 0.02 0.01 47 1012.0
20260507142506 74 327 2.0 5.0 0.00 0.02 0.01 50 1012.0
20260507142006 74 304 1.0 5.0 0.00 0.02 0.01 49 1012.1
20260507141505 75 270 1.0 5.0 0.00 0.02 0.01 46 1012.0
20260507141007 75 284 3.0 6.0 0.00 0.02 0.01 47 1012.0
20260507140006 74 290 4.0 9.0 0.00 0.02 0.01 46 1011.9
20260507135505 74 303 3.0 7.0 0.00 0.02 0.01 50 1012.0
20260507135005 73 300 2.0 5.0 0.00 0.02 0.01 51 1012.1
20260507134505 73 301 2.0 5.0 0.00 0.02 0.01 49 1012.1
20260507134005 74 292 2.0 5.0 0.00 0.02 0.01 47 1012.1
20260507133506 74 270 3.0 6.0 0.00 0.02 0.01 48 1012.2
20260507133005 75 260 2.0 6.0 0.00 0.02 0.01 45 1012.2
20260507132505 75 239 3.0 7.0 0.00 0.02 0.01 46 1012.2
20260507132006 76 239 3.0 7.0 0.00 0.02 0.01 45 1012.1
20260507131505 75 260 3.0 7.0 0.00 0.02 0.01 50 1012.2
20260507131005 74 252 2.0 7.0 0.00 0.02 0.01 47 1012.2
20260507130505 74 240 3.0 9.0 0.00 0.02 0.01 47 1012.2
20260507125005 74 275 4.0 11.0 0.00 0.02 0.01 50 1012.2
20260507124505 73 277 3.0 11.0 0.00 0.02 0.01 49 1012.2
20260507124006 74 257 3.0 11.0 0.00 0.02 0.01 48 1012.3
20260507123505 74 245 4.0 11.0 0.00 0.02 0.01 51 1012.4
20260507122505 74 254 4.0 11.0 0.00 0.02 0.01 48 1012.4
20260507122005 73 257 5.0 11.0 0.00 0.02 0.01 50 1012.4
20260507121505 73 259 4.0 9.0 0.00 0.02 0.01 50 1012.5
20260507121005 73 259 4.0 8.0 0.00 0.02 0.01 52 1012.4
20260507120505 74 253 4.0 8.0 0.00 0.02 0.01 48 1012.5
20260507120006 75 246 3.0 9.0 0.00 0.02 0.01 47 1012.6
20260507115506 75 247 3.0 9.0 0.00 0.02 0.01 50 1012.6
20260507115006 75 238 3.0 8.0 0.00 0.02 0.01 49 1012.5
20260507114505 74 239 3.0 8.0 0.00 0.02 0.01 52 1012.6
20260507114006 74 240 4.0 8.0 0.00 0.02 0.01 50 1012.6
20260507113006 74 245 3.0 10.0 0.00 0.04 0.01 49 1012.6
20260507111006 72 257 5.0 11.0 0.00 0.12 0.01 52 1012.8
20260507110505 73 246 4.0 11.0 0.00 0.12 0.01 51 1013.0
20260507110005 74 233 3.0 8.0 0.00 0.12 0.01 53 1013.0
20260507105505 74 237 3.0 8.0 0.00 0.12 0.01 55 1013.1
20260507104006 72 242 4.0 10.0 0.00 0.12 0.01 58 1013.2
20260507103505 71 252 4.0 9.0 0.00 0.12 0.01 57 1013.2
20260507103005 71 254 5.0 11.0 0.00 0.12 0.01 57 1013.3
20260507102505 72 250 4.0 11.0 0.00 0.12 0.01 58 1013.3
20260507102007 72 238 3.0 9.0 0.00 0.12 0.01 60 1013.3
20260507101507 72 245 4.0 9.0 0.00 0.12 0.01 61 1013.4
20260507101005 71 250 4.0 10.0 0.00 0.12 0.01 59 1013.4
20260507100505 71 248 4.0 10.0 0.00 0.12 0.01 60 1013.4
20260507100006 71 246 5.0 12.0 0.00 0.12 0.01 57 1013.4
20260507095506 70 245 5.0 13.0 0.00 0.12 0.01 60 1013.5
20260507095006 70 246 4.0 14.0 0.00 0.12 0.01 61 1013.5
20260507094505 70 251 5.0 14.0 0.00 0.12 0.01 63 1013.5
20260507094005 69 254 5.0 11.0 0.00 0.12 0.01 62 1013.5
20260507093006 70 238 5.0 13.0 0.00 0.12 0.01 62 1013.5
20260507092505 69 240 5.0 13.0 0.00 0.12 0.01 63 1013.3
20260507092006 69 249 5.0 12.0 0.00 0.12 0.01 67 1013.4
20260507091506 69 254 5.0 10.0 0.00 0.12 0.01 65 1013.4
20260507091006 69 253 4.0 10.0 0.00 0.12 0.01 64 1013.2
20260507090006 69 240 5.0 10.0 0.00 0.12 0.01 64 1013.3
20260507085505 69 233 4.0 10.0 0.00 0.12 0.01 64 1013.3
20260507085005 69 230 3.0 9.0 0.00 0.12 0.01 68 1013.4
20260507084505 69 231 4.0 9.0 0.00 0.12 0.01 67 1013.4
20260507084005 68 235 4.0 9.0 0.00 0.12 0.01 68 1013.3
20260507083506 68 234 4.0 10.0 0.00 0.12 0.01 69 1013.3
20260507083006 67 233 4.0 10.0 0.00 0.12 0.01 67 1013.3
20260507082505 67 242 4.0 9.0 0.00 0.12 0.01 70 1013.2
20260507082005 67 244 4.0 9.0 0.00 0.12 0.01 69 1013.3
20260507081505 68 235 4.0 9.0 0.00 0.12 0.01 68 1013.2
20260507081006 68 231 3.0 8.0 0.00 0.12 0.01 69 1013.2
20260507080005 67 225 3.0 8.0 0.00 0.12 0.01 72 1013.2
20260507075505 67 225 3.0 8.0 0.00 0.12 0.01 72 1013.4
20260507075006 67 226 3.0 8.0 0.00 0.12 0.01 73 1013.4
20260507074505 66 228 2.0 7.0 0.00 0.12 0.01 72 1013.3
20260507074005 66 233 2.0 8.0 0.00 0.12 0.01 72 1013.2
20260507073505 65 238 3.0 8.0 0.00 0.12 0.01 74 1013.2
20260507073005 65 235 2.0 6.0 0.00 0.12 0.01 74 1013.2
20260507072505 65 229 2.0 5.0 0.00 0.12 0.01 75 1013.2
20260507072006 65 230 1.0 4.0 0.00 0.12 0.01 76 1013.1
20260507071505 64 217 2.0 6.0 0.00 0.12 0.01 75 1013.2
20260507071005 64 216 2.0 6.0 0.00 0.12 0.01 77 1013.1
20260507070505 64 219 1.0 5.0 0.00 0.12 0.01 76 1013.1
20260507070010 64 212 1.0 4.0 0.00 0.12 0.01 77 1013.1
20260507065505 64 216 1.0 4.0 0.00 0.12 0.01 78 1013.0
20260507065005 63 212 1.0 5.0 0.00 0.12 0.01 79 1012.9
20260507064505 62 204 2.0 5.0 0.00 0.12 0.01 81 1013.0
20260507064005 62 201 2.0 4.0 0.00 0.12 0.01 83 1013.0
20260507063505 61 203 2.0 6.0 0.00 0.12 0.01 85 1012.9
20260507063005 60 203 2.0 6.0 0.00 0.12 0.01 86 1012.9
20260507062505 60 196 1.0 4.0 0.00 0.12 0.01 89 1012.9
20260507062006 60 190 1.0 4.0 0.00 0.12 0.01 91 1012.8
20260507061506 59 192 1.0 4.0 0.00 0.12 0.01 92 1012.8
20260507061005 59 195 1.0 3.0 0.00 0.12 0.01 93 1012.8
20260507060505 58 194 0.0 1.0 0.00 0.12 0.01 93 1012.8
20260507060005 58 194 0.0 1.0 0.00 0.12 0.01 94 1012.7
20260507055505 58 195 0.0 3.0 0.00 0.12 0.01 94 1012.7
20260507055005 57 196 1.0 3.0 0.00 0.12 0.01 95 1012.6
20260507054505 56 198 0.0 2.0 0.00 0.12 0.01 95 1012.6
20260507053505 54 189 2.0 3.0 0.00 0.12 0.01 95 1012.4
20260507053006 54 184 1.0 3.0 0.00 0.12 0.01 95 1012.4
20260507051505 53 117 0.0 3.0 0.00 0.13 0.01 95 1012.3
20260507051005 53 113 0.0 3.0 0.00 0.13 0.01 95 1012.1
20260507050006 52 0 0.0 0.0 0.00 0.13 0.01 95 1012.1
20260507045505 52 0 0.0 0.0 0.00 0.13 0.01 95 1012.0
20260507045005 51 0 0.0 0.0 0.00 0.13 0.01 95 1011.9
20260507044506 51 0 0.0 0.0 0.00 0.13 0.01 95 1011.9
20260507044005 51 0 0.0 0.0 0.00 0.13 0.01 95 1011.8
20260507043505 50 0 0.0 0.0 0.00 0.14 0.01 95 1011.8
20260507042505 50 0 0.0 0.0 0.00 0.15 0.01 95 1011.7
20260507041505 50 0 0.0 0.0 0.00 0.15 0.01 95 1011.6
20260507041005 50 0 0.0 0.0 0.00 0.16 0.01 95 1011.7
20260507040505 50 0 0.0 0.0 0.00 0.16 0.01 95 1011.5
20260507040005 50 0 0.0 0.0 0.00 0.16 0.01 95 1011.6
20260507035505 50 0 0.0 0.0 0.00 0.16 0.01 95 1011.5
20260507035005 50 0 0.0 0.0 0.00 0.17 0.01 95 1011.5
20260507034506 50 18 0.0 2.0 0.00 0.17 0.01 95 1011.5
20260507033505 50 14 0.0 3.0 0.00 0.17 0.01 95 1011.6
20260507033005 51 0 0.0 0.0 0.00 0.18 0.01 95 1011.5
20260507032506 51 0 0.0 0.0 0.00 0.18 0.01 95 1011.6
20260507032005 51 0 0.0 0.0 0.00 0.18 0.01 95 1011.4
20260507031505 51 0 0.0 0.0 0.00 0.18 0.01 95 1011.4
20260507031005 51 0 0.0 0.0 0.00 0.19 0.01 95 1011.4
20260507030506 51 0 0.0 0.0 0.00 0.19 0.01 95 1011.5
20260507030006 52 0 0.0 0.0 0.00 0.19 0.01 95 1011.6
20260507025505 52 0 0.0 0.0 0.00 0.19 0.01 95 1011.4
20260507025006 52 0 0.0 0.0 0.00 0.19 0.01 95 1011.4
20260507024506 52 0 0.0 0.0 0.00 0.19 0.01 95 1011.4
20260507024006 53 0 0.0 0.0 0.00 0.19 0.01 95 1011.4
20260507023505 53 0 0.0 0.0 0.00 0.20 0.01 95 1011.3
20260507022505 54 0 0.0 0.0 0.00 0.20 0.01 95 1011.6
20260507022005 53 0 0.0 0.0 0.00 0.20 0.01 95 1011.5
20260507021505 53 358 1.0 3.0 0.00 0.20 0.01 95 1011.4
20260507021005 53 11 1.0 3.0 0.00 0.20 0.01 95 1011.6
20260507020505 53 19 0.0 3.0 0.00 0.20 0.01 94 1011.5
20260507020005 54 0 0.0 0.0 0.00 0.20 0.01 94 1011.5
20260507014506 55 108 0.0 2.0 0.00 0.20 0.01 95 1011.5
20260507013505 56 85 1.0 3.0 0.00 0.20 0.01 95 1011.4
20260507013005 56 88 1.0 4.0 0.01 0.20 0.01 95 1011.3
20260507012506 56 89 1.0 4.0 0.01 0.20 0.01 94 1011.3
20260507010506 55 59 1.0 3.0 0.01 0.20 0.01 94 1011.2
20260507010005 55 33 1.0 3.0 0.01 0.20 0.01 94 1011.3
20260507005505 54 28 1.0 3.0 0.01 0.20 0.01 94 1011.2
20260507005006 54 36 0.0 3.0 0.01 0.20 0.01 94 1011.3
20260507004005 55 28 1.0 3.0 0.01 0.20 0.01 94 1011.2
20260507003505 56 35 0.0 3.0 0.01 0.20 0.01 94 1011.1
20260507002506 57 354 1.0 4.0 0.00 0.19 0.00 94 1011.0
20260507002006 56 1 1.0 4.0 0.00 0.19 0.00 94 1011.1
20260507001506 56 11 1.0 2.0 0.00 0.19 0.00 94 1011.2
20260507001005 56 8 2.0 4.0 0.00 0.19 0.00 94 1011.1
20260507000505 56 9 2.0 4.0 0.00 0.19 0.00 94 1011.2
20260507000005 56 15 1.0 3.0 0.00 0.19 0.00 94 1011.2
20260506235505 56 0 0.0 0.0 0.00 0.19 0.00 94 1011.2
20260506234006 57 0 0.0 0.0 0.00 0.19 0.00 94 1011.1
20260506233505 57 0 0.0 0.0 0.00 0.19 0.00 94 1011.1
20260506233005 57 0 0.0 0.0 0.00 0.19 0.00 94 1011.1
20260506232005 58 0 0.0 0.0 0.00 0.19 0.00 94 1011.1
20260506231505 58 0 0.0 0.0 0.00 0.19 0.00 94 1011.3
20260506231005 58 0 0.0 0.0 0.00 0.19 0.00 94 1011.0
20260506230505 58 0 0.0 0.0 0.00 0.19 0.00 94 1010.9
20260506230005 58 0 0.0 0.0 0.00 0.19 0.00 94 1011.0
20260506225505 58 0 0.0 0.0 0.00 0.19 0.00 93 1011.0
20260506225005 58 0 0.0 0.0 0.00 0.19 0.00 93 1011.0
20260506224505 58 0 0.0 0.0 0.00 0.19 0.00 93 1011.0
20260506224006 58 0 0.0 0.0 0.00 0.19 0.00 94 1011.0
20260506223505 58 6 0.0 1.0 0.00 0.19 0.00 93 1011.0
20260506222005 59 67 1.0 3.0 0.00 0.20 0.00 93 1011.1
20260506221505 59 221 0.0 2.0 0.00 0.20 0.00 93 1011.0
20260506221006 59 222 0.0 2.0 0.00 0.20 0.00 93 1011.1
20260506220505 59 211 1.0 3.0 0.00 0.20 0.00 93 1011.0
20260506220008 59 101 3.0 5.0 0.00 0.20 0.00 93 1011.1
20260506215006 59 62 0.0 4.0 0.00 0.20 0.20 93 1011.0
20260506214505 60 0 0.0 0.0 0.00 0.20 0.20 93 1011.1
20260506214005 60 0 0.0 0.0 0.00 0.20 0.20 93 1011.1
20260506213505 60 30 0.0 2.0 0.00 0.20 0.20 93 1011.0
20260506212506 60 41 1.0 3.0 0.00 0.20 0.20 93 1011.0
20260506212005 60 41 2.0 4.0 0.00 0.20 0.20 93 1011.1
20260506210505 61 25 0.0 3.0 0.00 0.20 0.20 93 1011.1
20260506210006 61 88 2.0 9.0 0.00 0.20 0.20 93 1010.9
20260506205505 61 88 4.0 9.0 0.00 0.20 0.20 93 1010.8
20260506205005 61 90 2.0 9.0 0.00 0.20 0.20 93 1010.8
20260506204505 61 219 1.0 3.0 0.00 0.20 0.20 93 1010.7
20260506204006 61 89 2.0 5.0 0.00 0.20 0.20 93 1010.7
20260506203506 61 61 3.0 5.0 0.00 0.20 0.20 93 1010.5
20260506203005 61 29 2.0 5.0 0.00 0.20 0.20 93 1010.5
20260506202505 61 284 2.0 3.0 0.00 0.20 0.20 93 1010.5
20260506201506 61 55 2.0 3.0 0.00 0.20 0.20 93 1010.4
20260506201006 61 72 2.0 4.0 0.00 0.20 0.20 93 1010.3
20260506200505 61 72 3.0 5.0 0.00 0.20 0.20 93 1010.2
20260506200005 61 67 4.0 5.0 0.00 0.20 0.20 93 1010.1
20260506195506 61 56 3.0 5.0 0.00 0.20 0.20 93 1010.1
20260506195005 62 40 2.0 4.0 0.00 0.20 0.20 93 1010.1
20260506194505 62 41 3.0 5.0 0.00 0.20 0.20 93 1010.0
20260506194005 62 47 5.0 9.0 0.00 0.20 0.20 92 1010.1
20260506193506 62 52 6.0 10.0 0.00 0.20 0.20 92 1009.9
20260506193005 62 54 6.0 10.0 0.00 0.20 0.20 92 1009.8
20260506192505 62 55 6.0 9.0 0.00 0.20 0.20 92 1009.7
20260506192005 62 59 7.0 9.0 0.00 0.20 0.20 92 1009.6
20260506191506 62 63 7.0 9.0 0.00 0.20 0.20 92 1009.6
20260506191005 62 62 7.0 11.0 0.00 0.20 0.20 92 1009.5
20260506190505 62 57 7.0 11.0 0.00 0.20 0.20 91 1009.4
20260506190006 61 55 5.0 11.0 0.00 0.20 0.20 90 1009.4
20260506185506 61 54 5.0 8.0 0.00 0.20 0.20 89 1009.4
20260506185006 61 48 5.0 8.0 0.00 0.20 0.20 88 1009.3
20260506184505 61 47 5.0 8.0 0.00 0.20 0.20 87 1009.2
20260506184005 61 53 5.0 8.0 0.00 0.20 0.20 87 1009.1
20260506183505 62 55 5.0 9.0 0.00 0.20 0.20 87 1009.0
20260506183006 62 54 7.0 10.0 0.00 0.20 0.20 86 1009.0
20260506182506 62 54 8.0 10.0 0.00 0.20 0.20 86 1009.0
20260506182006 63 57 8.0 10.0 0.00 0.20 0.20 86 1008.8
20260506181505 63 57 6.0 9.0 0.00 0.20 0.20 86 1008.7
20260506181006 63 60 6.0 10.0 0.00 0.20 0.20 86 1008.8
20260506180506 64 64 7.0 10.0 0.00 0.20 0.20 86 1008.7
20260506175505 64 60 5.0 11.0 0.00 0.20 0.20 84 1008.6
20260506175005 65 60 4.0 8.0 0.00 0.20 0.20 84 1008.5
20260506174006 65 70 7.0 11.0 0.00 0.20 0.20 81 1008.4
20260506173506 65 72 7.0 11.0 0.00 0.20 0.20 83 1008.5
20260506173006 65 66 6.0 11.0 0.00 0.20 0.20 83 1008.5
20260506172505 65 61 7.0 10.0 0.00 0.20 0.20 85 1008.5
20260506171506 65 66 7.0 10.0 0.00 0.20 0.20 86 1008.3
20260506171006 65 72 9.0 13.0 0.00 0.20 0.20 86 1008.3
20260506170506 65 72 10.0 13.0 0.00 0.20 0.20 86 1008.2
20260506170005 65 72 10.0 14.0 0.00 0.20 0.20 87 1008.1
20260506165005 65 55 10.0 15.0 0.00 0.20 0.20 86 1008.2
20260506164506 65 51 7.0 13.0 0.00 0.20 0.20 84 1008.2
20260506163506 65 339 4.0 10.0 0.01 0.20 0.20 80 1008.3
20260506163006 65 344 3.0 7.0 0.01 0.20 0.20 82 1008.3
20260506162505 65 56 6.0 15.0 0.01 0.20 0.20 83 1008.3
20260506162005 65 80 8.0 15.0 0.01 0.20 0.20 84 1008.2
20260506161506 66 76 7.0 14.0 0.01 0.20 0.20 80 1008.3
20260506161006 65 54 6.0 9.0 0.01 0.20 0.20 80 1008.0
20260506160505 64 42 7.0 10.0 0.01 0.20 0.20 81 1007.9
20260506160005 64 39 8.0 13.0 0.01 0.20 0.20 81 1008.1
20260506155506 64 34 8.0 13.0 0.01 0.20 0.20 81 1008.1
20260506154005 66 5 5.0 14.0 0.00 0.19 0.19 80 1008.5
20260506153506 68 58 7.0 14.0 0.00 0.19 0.19 82 1008.2
20260506152506 69 71 13.0 20.0 0.00 0.19 0.19 84 1007.5
20260506152006 69 66 11.0 16.0 0.00 0.19 0.19 83 1007.5